Morrisville, VT

10:34 PM EDT on September 23, 2017 (GMT -0400)
Morrisville Stowe State

Weather History for KMVL - May, 2013

Change the Weather History Date:

Tuesday, May 21, 2013

  Actual Average Record
Temperature  
Mean Temperature 61 °F 56 °F  
Max Temperature 71 °F 68 °F 81 °F (2012)
Min Temperature 51 °F 43 °F 29 °F (2017)
Degree Days  
Heating Degree Days 4 10  
Month to date heating degree days 175 268  
Since 1 July heating degree days 7441 8048  
Cooling Degree Days 0 0  
Month to date cooling degree days 0 0  
Year to date cooling degree days 0 1  
Growing Degree Days 10 (Base 50)    
Moisture  
Dew Point 55 °F    
Average Humidity 83    
Maximum Humidity 100    
Minimum Humidity 66    
Precipitation  
Precipitation 0.77 in 0.11 in 0.77 in (2013)
Month to date precipitation 1.50 2.02  
Year to date precipitation 8.53 10.37  
Sea Level Pressure  
Sea Level Pressure 29.94 in    
Wind  
Wind Speed 4 mph (NNE)    
Max Wind Speed 18 mph    
Max Gust Speed 24 mph    
Visibility 6 miles    
Events Fog , Rain , Thunderstorm    
T = Trace of Precipitation, MM = Missing Value Source: NWS Daily Summary

Daily Weather History Graph

Daily Weather History Graph

Search for Another Location

Airport or City:

Trip Planner

Search our weather history database for the weather conditions in past years. The results will help you decide how hot, cold, wet, or windy it might be!

Date:

Astronomy

May. 21, 2013 Rise Set
Actual Time 5:16 AM EDT 8:18 PM EDT
Civil Twilight 4:41 AM EDT 8:52 PM EDT
Nautical Twilight 3:57 AM EDT 9:37 PM EDT
Astronomical Twilight 3:04 AM EDT 10:30 PM EDT
Moon 4:20 PM EDT (5/21) 2:52 AM EDT (5/21)
Length of Visible Light 16h 10m
Length of Day
15h 01m
Waxing Gibbous, 84% of the Moon is Illuminated
May 21
Waxing Gibbous
May 25
Full
May 31
Last Quarter
Jun 8
New
Jun 16
First Quarter

Hourly Weather History & Observations

Time (EDT) Temp. Dew Point Humidity Pressure Visibility Wind Dir Wind Speed Gust Speed Precip Events Conditions
12:01 AM 53.6 °F 51.8 °F 94% 30.02 in 1.0 mi Calm Calm - N/A   Overcast
12:05 AM 53.6 °F 51.8 °F 94% 30.02 in 2.0 mi Calm Calm - N/A   Overcast
12:13 AM 51.8 °F 51.8 °F 100% 30.02 in 3.0 mi Calm Calm - N/A   Overcast
12:15 AM 51.8 °F 51.8 °F 100% 30.02 in 1.5 mi Calm Calm - N/A   Overcast
12:17 AM 51.8 °F 51.8 °F 100% 30.02 in 0.8 mi Calm Calm - N/A   Overcast
12:31 AM 51.8 °F 51.8 °F 100% 30.01 in 0.2 mi Calm Calm - N/A Fog Fog
12:54 AM 52.0 °F 51.1 °F 97% 30.01 in 0.5 mi Calm Calm - N/A Fog Fog
1:51 AM 51.8 °F 50.0 °F 94% 29.99 in 1.0 mi Calm Calm - N/A   Mist
1:54 AM 51.1 °F 50.0 °F 96% 30.00 in 0.8 mi Calm Calm - N/A   Mist
2:54 AM 52.0 °F 52.0 °F 100% 29.97 in 2.5 mi Calm Calm - N/A   Overcast
3:04 AM 51.8 °F 51.8 °F 100% 29.95 in 1.8 mi Calm Calm - N/A   Overcast
3:19 AM 51.8 °F 51.8 °F 100% 29.94 in 2.5 mi Calm Calm - N/A   Overcast
3:31 AM 53.6 °F 51.8 °F 94% 29.94 in 4.0 mi Calm Calm - N/A   Overcast
3:54 AM 53.1 °F 52.0 °F 96% 29.95 in 5.0 mi Calm Calm - N/A   Overcast
4:54 AM 54.0 °F 53.1 °F 97% 29.92 in 6.0 mi Calm Calm - N/A   Overcast
5:13 AM 53.6 °F 53.6 °F 100% 29.93 in 3.0 mi Variable 6.9 mph - 0.05 in Rain , Thunderstorm Light Thunderstorms and Rain
5:15 AM 53.6 °F 53.6 °F 100% 29.91 in 1.8 mi SE 6.9 mph - 0.13 in Rain , Thunderstorm Thunderstorms and Rain
5:22 AM 55.4 °F 53.6 °F 94% 29.92 in 1.0 mi South 6.9 mph - 0.18 in Rain , Thunderstorm Thunderstorms and Rain
5:24 AM 55.4 °F 53.6 °F 94% 29.90 in 1.5 mi SSE 8.1 mph - 0.19 in Rain , Thunderstorm Thunderstorms and Rain
5:32 AM 55.4 °F 55.4 °F 100% 29.88 in 2.5 mi Variable 3.5 mph - 0.22 in Rain , Thunderstorm Thunderstorms and Rain
5:39 AM 55.4 °F 53.6 °F 94% 29.87 in 3.0 mi North 6.9 mph - 0.24 in Rain Rain
5:54 AM 55.0 °F 54.0 °F 96% 29.88 in 4.0 mi Calm Calm - 0.26 in Rain Light Rain
6:02 AM 55.4 °F 53.6 °F 94% 29.89 in 5.0 mi NNW 4.6 mph - 0.00 in Rain Light Rain
6:45 AM 55.4 °F 53.6 °F 94% 29.90 in 7.0 mi Calm Calm - 0.00 in   Overcast
6:54 AM 55.9 °F 55.0 °F 97% 29.91 in 6.0 mi Calm Calm - 0.00 in   Overcast
7:14 AM 55.4 °F 55.4 °F 100% 29.89 in 5.0 mi Calm Calm - N/A   Overcast
7:54 AM 57.9 °F 55.9 °F 93% 29.91 in 7.0 mi Calm Calm - N/A   Overcast
8:54 AM 61.0 °F 59.0 °F 93% 29.91 in 9.0 mi South 6.9 mph - N/A   Overcast
9:54 AM 64.0 °F 61.0 °F 90% 29.92 in 10.0 mi Calm Calm - N/A   Overcast
10:13 AM 62.6 °F 60.8 °F 94% 29.93 in 8.0 mi NNE 4.6 mph - N/A   Overcast
10:22 AM 64.4 °F 60.8 °F 88% 29.93 in 7.0 mi Variable 3.5 mph - N/A   Overcast
10:29 AM 62.6 °F 60.8 °F 94% 29.93 in 7.0 mi NNE 3.5 mph - N/A   Overcast
10:54 AM 63.0 °F 60.1 °F 90% 29.94 in 8.0 mi NNE 6.9 mph - N/A   Overcast
11:16 AM 64.4 °F 60.8 °F 88% 29.93 in 9.0 mi North 8.1 mph - N/A   Overcast
11:54 AM 66.9 °F 60.1 °F 79% 29.93 in 10.0 mi NNW 10.4 mph - N/A   Overcast
12:31 PM 66.2 °F 60.8 °F 83% 29.94 in 10.0 mi NNW 10.4 mph 18.4 mph N/A   Mostly Cloudy
12:42 PM 66.2 °F 60.8 °F 83% 29.94 in 10.0 mi NNW 13.8 mph - N/A   Mostly Cloudy
12:54 PM 69.1 °F 60.1 °F 73% 29.95 in 10.0 mi NNW 9.2 mph - N/A   Mostly Cloudy
1:22 PM 60.8 °F 55.4 °F 82% 29.96 in 10.0 mi ENE 6.9 mph - N/A   Mostly Cloudy
1:54 PM 64.9 °F 57.0 °F 75% 29.95 in 10.0 mi NNE 10.4 mph - N/A   Overcast
2:07 PM 64.4 °F 55.4 °F 73% 29.94 in 10.0 mi NE 10.4 mph - N/A   Mostly Cloudy
2:54 PM 68.0 °F 57.0 °F 68% 29.95 in 10.0 mi Calm Calm - N/A   Mostly Cloudy
3:04 PM 66.2 °F 57.2 °F 73% 29.94 in 10.0 mi Variable 4.6 mph - N/A   Mostly Cloudy
3:54 PM 69.1 °F 57.0 °F 65% 29.93 in 10.0 mi Calm Calm - 0.01 in   Clear
4:54 PM 70.0 °F 57.9 °F 65% 29.91 in 10.0 mi North 5.8 mph - N/A   Clear
5:54 PM 66.0 °F 57.0 °F 73% 29.90 in 10.0 mi ENE 9.2 mph 16.1 mph N/A   Partly Cloudy
6:54 PM 63.0 °F 55.0 °F 75% 29.91 in 10.0 mi NNE 9.2 mph - N/A   Mostly Cloudy
7:54 PM 60.1 °F 55.9 °F 86% 29.91 in 10.0 mi North 4.6 mph - 0.02 in   Overcast
8:07 PM 60.8 °F 55.4 °F 82% 29.91 in 10.0 mi NNE 3.5 mph - N/A   Overcast
8:54 PM 60.1 °F 55.9 °F 86% 29.90 in 10.0 mi North 5.8 mph - 0.00 in   Overcast
9:04 PM 60.8 °F 55.4 °F 82% 29.99 in 1.5 mi NNW 16.1 mph 24.2 mph 0.23 in Rain , Thunderstorm Heavy Rain
9:12 PM 59.0 °F 57.2 °F 94% 29.96 in 1.0 mi NNE 9.2 mph 21.9 mph 0.33 in Rain , Thunderstorm Heavy Rain
9:14 PM 59.0 °F 57.2 °F 94% 29.96 in 1.5 mi NNE 8.1 mph - 0.34 in Rain , Thunderstorm Heavy Rain
9:19 PM 57.2 °F 57.2 °F 100% 29.96 in 2.5 mi NNE 6.9 mph - 0.35 in Rain Rain
9:26 PM 57.2 °F 57.2 °F 100% 29.97 in 4.0 mi North 4.6 mph - 0.37 in Rain , Thunderstorm Rain
9:36 PM 57.2 °F 55.4 °F 94% 29.96 in 5.0 mi ENE 5.8 mph - 0.40 in Rain , Thunderstorm Light Rain
9:47 PM 57.2 °F 55.4 °F 94% 29.92 in 5.0 mi East 9.2 mph - 0.43 in Rain Light Rain
9:54 PM 57.9 °F 55.9 °F 93% 29.91 in 7.0 mi Variable 4.6 mph - 0.44 in Rain Light Rain
10:54 PM 57.0 °F 53.1 °F 87% 29.89 in 10.0 mi Calm Calm - 0.00 in   Overcast
11:06 PM 57.2 °F 55.4 °F 94% 29.88 in 10.0 mi South 3.5 mph - N/A   Overcast
11:25 PM 57.2 °F 55.4 °F 94% 29.87 in 10.0 mi South 3.5 mph - N/A   Overcast
11:54 PM 57.9 °F 55.9 °F 93% 29.86 in 10.0 mi Calm Calm - N/A   Overcast